Weather History for Kendall, FL

Change the Weather History Date:

Saturday, November 30, 2013

  Actual Average Record
Temperature  
Mean Temperature 72 °F -  
Max Temperature 82 °F 76 °F 83 °F (1990)
Min Temperature 61 °F 62 °F 48 °F (2002)
Cooling Degree Days 6    
Growing Degree Days 22 (Base 50)    
Moisture  
Dew Point 65 °F    
Average Humidity 88    
Maximum Humidity 100    
Minimum Humidity 58    
Precipitation  
Precipitation 0.18 in - - ()
Sea Level Pressure  
Sea Level Pressure 30.15 in    
Wind  
Wind Speed 9 mph (North)    
Max Wind Speed 18 mph    
Max Gust Speed 26 mph    
Visibility 9 miles    
Events Rain    
Averages and records for this station are not official NWS values.
T = Trace of Precipitation, MM = Missing Value Source: NWS Daily Summary

Daily Weather History Graph

Daily Weather History Graph

Search for Another Location

Airport:

Trip Planner

Search our weather history database for the weather conditions in past years. The results will help you decide how hot, cold, wet, or windy it might be!

Date:

Astronomy

Nov. 30, 2013 Rise Set
Actual Time 6:50 AM EST 5:30 PM EST
Civil Twilight 6:25 AM EST 5:55 PM EST
Nautical Twilight 5:57 AM EST 6:23 PM EST
Astronomical Twilight 5:29 AM EST 6:51 PM EST
Moon 4:12 AM EST (11/30) 3:42 PM EST (11/30)
Length of Visible Light 11h 29m
Length of Day
10h 39m
Waning Crescent, 7% of the Moon is Illuminated
Nov 30
Waning Crescent
Dec 2
New
Dec 9
First Quarter
Dec 17
Full
Dec 25
Last Quarter

Hourly Weather History & Observations

Time (EST) Temp. Heat Index Dew Point Humidity Pressure Visibility Wind Dir Wind Speed Gust Speed Precip Events Conditions
12:53 AM 66.0 °F - 61.0 °F 84% 30.20 in 10.0 mi North 10.4 mph - N/A   Clear
1:53 AM 64.0 °F - 61.0 °F 90% 30.19 in 10.0 mi North 8.1 mph - N/A   Partly Cloudy
2:53 AM 63.0 °F - 61.0 °F 93% 30.17 in 10.0 mi North 11.5 mph - N/A   Clear
3:53 AM 63.0 °F - 61.0 °F 93% 30.17 in 10.0 mi North 10.4 mph - N/A   Clear
4:53 AM 62.1 °F - 61.0 °F 96% 30.17 in 10.0 mi North 10.4 mph - N/A   Clear
5:53 AM 62.1 °F - 61.0 °F 96% 30.17 in 10.0 mi North 6.9 mph - N/A   Partly Cloudy
6:53 AM 61.0 °F - 60.1 °F 97% 30.18 in 10.0 mi NW 4.6 mph - N/A   Clear
7:53 AM 64.0 °F - 61.0 °F 90% 30.19 in 10.0 mi North 10.4 mph - N/A   Clear
8:53 AM 68.0 °F - 62.1 °F 81% 30.20 in 10.0 mi North 9.2 mph - N/A   Clear
9:53 AM 73.0 °F - 64.0 °F 73% 30.20 in 10.0 mi NNE 6.9 mph - N/A   Clear
10:53 AM 77.0 °F - 66.0 °F 69% 30.19 in 10.0 mi NNE 9.2 mph - 0.00 in   Clear
11:53 AM 80.1 °F 82.3 °F 66.9 °F 64% 30.16 in 10.0 mi NNE 10.4 mph - N/A   Clear
12:53 PM 80.1 °F 82.3 °F 66.9 °F 64% 30.13 in 10.0 mi NE 9.2 mph - N/A   Overcast
1:53 PM 82.0 °F 84.1 °F 66.0 °F 58% 30.11 in 10.0 mi ENE 10.4 mph - N/A   Scattered Clouds
2:31 PM 75.2 °F - 68.0 °F 78% 30.11 in 10.0 mi NNE 18.4 mph 26.5 mph N/A   Overcast
2:53 PM 72.0 °F - 69.1 °F 91% 30.12 in 5.0 mi NNE 17.3 mph 21.9 mph 0.04 in Rain Light Rain
3:53 PM 71.1 °F - 70.0 °F 96% 30.12 in 2.0 mi North 11.5 mph - 0.05 in Rain Rain
4:08 PM 69.8 °F - 69.8 °F 100% 30.12 in 2.0 mi North 6.9 mph - 0.04 in Rain Rain
4:53 PM 69.1 °F - 69.1 °F 100% 30.12 in 6.0 mi SSE 6.9 mph - 0.09 in   Overcast
5:00 PM 69.8 °F - 66.2 °F 88% 30.12 in 5.0 mi Calm Calm - 0.00 in Rain Light Rain
5:15 PM 69.8 °F - 68.0 °F 94% 30.12 in 10.0 mi NNW 3.5 mph - 0.00 in   Overcast
5:19 PM 69.8 °F - 69.8 °F 100% 30.12 in 10.0 mi NW 5.8 mph - 0.00 in   Overcast
5:53 PM 69.1 °F - 68.0 °F 96% 30.12 in 10.0 mi SW 3.5 mph - 0.00 in   Overcast
6:53 PM 68.0 °F - 66.9 °F 96% 30.12 in 10.0 mi WSW 4.6 mph - N/A   Scattered Clouds
7:53 PM 68.0 °F - 66.0 °F 93% 30.13 in 10.0 mi NNE 5.8 mph - N/A   Clear
8:53 PM 69.1 °F - 64.9 °F 87% 30.14 in 10.0 mi NNE 4.6 mph - N/A   Scattered Clouds
9:53 PM 66.9 °F - 64.0 °F 90% 30.14 in 10.0 mi Calm Calm - N/A   Clear
10:53 PM 64.9 °F - 64.0 °F 97% 30.13 in 10.0 mi North 3.5 mph - N/A   Clear
11:53 PM 64.0 °F - 63.0 °F 96% 30.11 in 10.0 mi North 3.5 mph - N/A   Clear